START_TIME,STEP,MOV.,P11,t_acc.,P23,t_acc.,P27,t_acc.,A4,t_acc.
1979-07-19 06:00:22.970 ,0,1,3.,4.8,0.,4.8,0.,4.8,0.,4.8
1979-07-19 06:00:27.770 ,0,1,0.,4.8,0.,4.8,0.,4.8,1.,4.8
1979-07-19 06:00:32.570 ,0,1,3.,4.8,0.,4.8,0.,4.8,0.,4.8
1979-07-19 06:00:37.370 ,0,1,2.,4.8,0.,4.8,0.,4.8,0.,4.8
1979-07-19 06:00:42.170 ,0,1,4.,4.8,0.,4.8,0.,4.8,0.,4.8
1979-07-19 06:00:46.970 ,4,1,1.,4.8,0.,4.8,0.,4.8,0.,4.8
1979-07-19 06:00:51.770 ,4,1,1.,4.8,0.,4.8,0.,4.8,0.,4.8
1979-07-19 06:00:56.570 ,4,1,1.,4.8,0.,4.8,0.,4.8,0.,4.8
1979-07-19 06:01:01.370 ,4,1,6.,4.8,0.,4.8,0.,4.8,0.,4.8
1979-07-19 06:01:06.170 ,4,1,3.,4.8,0.,4.8,0.,4.8,0.,4.8
1979-07-19 06:01:10.970 ,7,1,1.,4.8,0.,4.8,0.,4.8,0.,4.8
1979-07-19 06:01:15.770 ,7,1,3.,4.8,0.,4.8,0.,4.8,0.,4.8
1979-07-19 06:01:20.570 ,7,1,3.,4.8,0.,4.8,0.,4.8,0.,4.8
1979-07-19 06:01:25.370 ,7,1,3.,4.8,0.,4.8,0.,4.8,0.,4.8
1979-07-19 06:01:30.170 ,7,1,1.,4.8,0.,4.8,0.,4.8,0.,4.8
1979-07-19 06:01:34.970 ,3,1,2.,4.8,0.,4.8,0.,4.8,0.,4.8
1979-07-19 06:01:39.770 ,3,1,0.,4.8,0.,4.8,0.,4.8,0.,4.8
1979-07-19 06:01:44.570 ,3,1,0.,4.8,0.,4.8,0.,4.8,0.,4.8
1979-07-19 06:01:49.370 ,3,1,2.,4.8,0.,4.8,0.,4.8,0.,4.8
1979-07-19 06:01:54.170 ,3,1,3.,4.8,0.,4.8,0.,4.8,0.,4.8
1979-07-19 06:01:58.970 ,0,1,1.,4.8,0.,4.8,0.,4.8,0.,4.8
1979-07-19 06:02:03.770 ,0,1,0.,4.8,0.,4.8,0.,4.8,0.,4.8
1979-07-19 06:02:08.570 ,0,1,1.,4.8,0.,4.8,0.,4.8,0.,4.8
1979-07-19 06:02:13.370 ,0,1,0.,4.8,0.,4.8,0.,4.8,0.,4.8
1979-07-19 06:02:18.170 ,0,1,0.,4.8,0.,4.8,0.,4.8,0.,4.8
1979-07-19 06:03:10.970 ,0,0,3.,4.8,0.,4.8,0.,4.8,0.,4.8
1979-07-19 06:03:15.770 ,0,0,4.,4.8,0.,4.8,0.,4.8,0.,4.8
1979-07-19 06:03:20.570 ,0,0,1.,4.8,0.,4.8,0.,4.8,0.,4.8
1979-07-19 06:03:25.370 ,0,0,3.,4.8,0.,4.8,0.,4.8,0.,4.8
1979-07-19 06:03:30.170 ,0,0,3.,4.8,0.,4.8,0.,4.8,0.,4.8
1979-07-19 06:03:34.970 ,0,1,6.,4.8,0.,4.8,0.,4.8,0.,4.8
1979-07-19 06:03:39.770 ,0,1,2.,4.8,0.,4.8,0.,4.8,0.,4.8
1979-07-19 06:03:44.570 ,0,1,1.,4.8,0.,4.8,0.,4.8,0.,4.8
1979-07-19 06:03:49.370 ,0,1,4.,4.8,0.,4.8,0.,4.8,0.,4.8
1979-07-19 06:03:54.170 ,0,1,5.,4.8,0.,4.8,0.,4.8,0.,4.8
1979-07-19 06:03:58.970 ,4,1,2.,4.8,0.,4.8,0.,4.8,0.,4.8
1979-07-19 06:04:03.770 ,4,1,5.,4.8,0.,4.8,0.,4.8,0.,4.8
1979-07-19 06:04:08.570 ,4,1,1.,4.8,0.,4.8,0.,4.8,0.,4.8
1979-07-19 06:04:13.370 ,4,1,3.,4.8,0.,4.8,0.,4.8,0.,4.8
1979-07-19 06:04:18.170 ,4,1,2.,4.8,0.,4.8,0.,4.8,0.,4.8
1979-07-19 06:04:22.970 ,7,1,3.,4.8,0.,4.8,0.,4.8,0.,4.8
1979-07-19 06:04:27.770 ,7,1,1.,4.8,0.,4.8,0.,4.8,0.,4.8
1979-07-19 06:04:32.570 ,7,1,2.,4.8,0.,4.8,0.,4.8,0.,4.8
1979-07-19 06:04:37.370 ,7,1,1.,4.8,0.,4.8,0.,4.8,0.,4.8
1979-07-19 06:04:42.170 ,7,1,2.,4.8,0.,4.8,0.,4.8,0.,4.8
1979-07-19 06:04:46.970 ,3,1,3.,4.8,0.,4.8,0.,4.8,0.,4.8
1979-07-19 06:04:51.770 ,3,1,2.,4.8,0.,4.8,0.,4.8,0.,4.8
1979-07-19 06:04:56.570 ,3,1,0.,4.8,0.,4.8,0.,4.8,0.,4.8
1979-07-19 06:05:01.370 ,3,1,3.,4.8,0.,4.8,0.,4.8,0.,4.8
1979-07-19 06:05:06.170 ,3,1,4.,4.8,0.,4.8,0.,4.8,0.,4.8
1979-07-19 06:05:10.970 ,0,1,3.,4.8,0.,4.8,0.,4.8,0.,4.8
1979-07-19 06:05:15.770 ,0,1,3.,4.8,0.,4.8,0.,4.8,0.,4.8
1979-07-19 06:05:20.570 ,0,1,2.,4.8,0.,4.8,0.,4.8,0.,4.8
1979-07-19 06:05:25.370 ,0,1,2.,4.8,0.,4.8,0.,4.8,0.,4.8
1979-07-19 06:05:30.170 ,0,1,3.,4.8,0.,4.8,0.,4.8,0.,4.8
1979-07-19 06:05:34.970 ,0,0,3.,4.8,0.,4.8,0.,4.8,0.,4.8
1979-07-19 06:05:39.770 ,0,0,1.,4.8,0.,4.8,0.,4.8,0.,4.8
1979-07-19 06:05:44.570 ,0,0,1.,4.8,0.,4.8,0.,4.8,0.,4.8
1979-07-19 06:05:49.370 ,0,0,2.,4.8,0.,4.8,0.,4.8,0.,4.8
1979-07-19 06:05:54.170 ,0,0,1.,4.8,0.,4.8,0.,4.8,0.,4.8
1979-07-19 06:05:58.970 ,0,0,2.,4.8,0.,4.8,0.,4.8,0.,4.8
1979-07-19 06:06:03.770 ,0,0,4.,4.8,0.,4.8,0.,4.8,0.,4.8
1979-07-19 06:06:08.570 ,0,0,1.,4.8,0.,4.8,0.,4.8,0.,4.8
1979-07-19 06:06:13.370 ,0,0,0.,4.8,0.,4.8,0.,4.8,0.,4.8
1979-07-19 06:06:18.170 ,0,0,4.,4.8,0.,4.8,0.,4.8,0.,4.8
1979-07-19 06:06:22.970 ,5,0,1.,4.8,0.,4.8,0.,4.8,0.,4.8
1979-07-19 06:06:27.770 ,5,0,1.,4.8,0.,4.8,0.,4.8,0.,4.8
1979-07-19 06:06:32.570 ,5,0,1.,4.8,0.,4.8,0.,4.8,0.,4.8
1979-07-19 06:06:37.370 ,5,0,2.,4.8,0.,4.8,0.,4.8,0.,4.8
1979-07-19 06:06:42.170 ,5,0,1.,4.8,0.,4.8,0.,4.8,0.,4.8
1979-07-19 06:06:46.970 ,5,0,,0,,0,,0,,0
1979-07-19 06:06:51.770 ,5,0,3.,4.8,0.,4.8,0.,4.8,0.,4.8
1979-07-19 06:06:56.570 ,5,0,3.,4.8,0.,4.8,0.,4.8,0.,4.8
1979-07-19 06:07:01.370 ,5,0,1.,4.8,0.,4.8,0.,4.8,0.,4.8
1979-07-19 06:07:06.170 ,5,0,3.,4.8,0.,4.8,0.,4.8,0.,4.8
1979-07-19 06:07:10.970 ,4,0,2.,4.8,0.,4.8,0.,4.8,0.,4.8
1979-07-19 06:07:15.770 ,4,0,1.,4.8,0.,4.8,0.,4.8,0.,4.8
1979-07-19 06:07:20.570 ,4,0,1.,4.8,0.,4.8,0.,4.8,0.,4.8
1979-07-19 06:07:25.370 ,4,0,2.,4.8,0.,4.8,0.,4.8,0.,4.8
1979-07-19 06:07:30.170 ,4,0,5.,4.8,0.,4.8,0.,4.8,0.,4.8
1979-07-19 06:07:34.970 ,4,0,2.,4.8,0.,4.8,0.,4.8,0.,4.8
1979-07-19 06:07:39.770 ,4,0,5.,4.8,0.,4.8,0.,4.8,0.,4.8
1979-07-19 06:07:44.570 ,4,0,2.,4.8,0.,4.8,0.,4.8,0.,4.8
1979-07-19 06:07:49.370 ,4,0,1.,4.8,0.,4.8,0.,4.8,0.,4.8
1979-07-19 06:07:54.170 ,4,0,1.,4.8,0.,4.8,0.,4.8,0.,4.8
1979-07-19 06:07:58.970 ,3,0,1.,4.8,0.,4.8,0.,4.8,0.,4.8
1979-07-19 06:08:03.770 ,3,0,1.,4.8,0.,4.8,0.,4.8,0.,4.8
1979-07-19 06:08:08.570 ,3,0,1.,4.8,0.,4.8,0.,4.8,0.,4.8
1979-07-19 06:08:13.370 ,3,0,2.,4.8,0.,4.8,0.,4.8,0.,4.8
1979-07-19 06:08:18.170 ,3,0,0.,4.8,0.,4.8,0.,4.8,0.,4.8
1979-07-19 06:08:22.970 ,3,0,1.,4.8,0.,4.8,0.,4.8,0.,4.8
1979-07-19 06:08:27.770 ,3,0,1.,4.8,0.,4.8,0.,4.8,0.,4.8
1979-07-19 06:08:32.570 ,3,0,0.,4.8,0.,4.8,0.,4.8,0.,4.8
1979-07-19 06:08:37.370 ,3,0,3.,4.8,0.,4.8,0.,4.8,0.,4.8
1979-07-19 06:08:42.170 ,3,0,2.,4.8,0.,4.8,0.,4.8,0.,4.8
1979-07-19 06:08:46.970 ,2,0,1.,4.8,0.,4.8,0.,4.8,0.,4.8
1979-07-19 06:08:51.770 ,2,0,3.,4.8,0.,4.8,0.,4.8,0.,4.8
1979-07-19 06:08:56.570 ,2,0,2.,4.8,0.,4.8,0.,4.8,0.,4.8
1979-07-19 06:09:01.370 ,2,0,3.,4.8,0.,4.8,0.,4.8,0.,4.8
1979-07-19 06:09:06.170 ,2,0,1.,4.8,0.,4.8,0.,4.8,0.,4.8
1979-07-19 06:09:10.970 ,2,0,6.,4.8,0.,4.8,0.,4.8,0.,4.8
1979-07-19 06:09:15.770 ,2,0,4.,4.8,0.,4.8,0.,4.8,0.,4.8
1979-07-19 06:09:20.570 ,2,0,0.,4.8,0.,4.8,0.,4.8,0.,4.8
1979-07-19 06:09:25.370 ,2,0,1.,4.8,0.,4.8,0.,4.8,0.,4.8
1979-07-19 06:09:30.170 ,2,0,4.,4.8,0.,4.8,0.,4.8,0.,4.8
1979-07-19 06:09:34.970 ,1,0,2.,4.8,0.,4.8,0.,4.8,0.,4.8
1979-07-19 06:09:39.770 ,1,0,2.,4.8,0.,4.8,0.,4.8,0.,4.8
1979-07-19 06:09:44.570 ,1,0,3.,4.8,0.,4.8,0.,4.8,0.,4.8
1979-07-19 06:09:49.370 ,1,0,1.,4.8,0.,4.8,0.,4.8,0.,4.8
1979-07-19 06:09:54.170 ,1,0,2.,4.8,0.,4.8,0.,4.8,0.,4.8
1979-07-19 06:09:58.970 ,1,0,2.,4.8,0.,4.8,0.,4.8,0.,4.8
1979-07-19 06:10:03.770 ,1,0,4.,4.8,0.,4.8,0.,4.8,0.,4.8
1979-07-19 06:10:08.570 ,1,0,2.,4.8,0.,4.8,0.,4.8,0.,4.8
1979-07-19 06:10:13.370 ,1,0,2.,4.8,0.,4.8,0.,4.8,0.,4.8
1979-07-19 06:10:18.170 ,1,0,0.,4.8,0.,4.8,0.,4.8,0.,4.8
1979-07-19 06:10:22.970 ,0,0,1.,4.8,0.,4.8,0.,4.8,0.,4.8
1979-07-19 06:10:27.770 ,0,0,2.,4.8,0.,4.8,0.,4.8,0.,4.8
1979-07-19 06:10:32.570 ,0,0,0.,4.8,0.,4.8,0.,4.8,0.,4.8
1979-07-19 06:10:37.370 ,0,0,3.,4.8,0.,4.8,0.,4.8,0.,4.8
1979-07-19 06:10:42.170 ,0,0,0.,4.8,0.,4.8,0.,4.8,0.,4.8
1979-07-19 06:10:46.970 ,0,0,2.,4.8,0.,4.8,0.,4.8,0.,4.8
1979-07-19 06:10:51.770 ,0,0,1.,4.8,0.,4.8,0.,4.8,0.,4.8
1979-07-19 06:10:56.570 ,0,0,3.,4.8,0.,4.8,0.,4.8,0.,4.8
1979-07-19 06:11:01.370 ,0,0,2.,4.8,0.,4.8,0.,4.8,0.,4.8
1979-07-19 06:11:06.170 ,0,0,0.,4.8,0.,4.8,0.,4.8,0.,4.8
1979-07-19 06:11:10.970 ,0,0,0.,4.8,0.,4.8,0.,4.8,0.,4.8
1979-07-19 06:11:15.770 ,0,0,3.,4.8,0.,4.8,0.,4.8,0.,4.8
1979-07-19 06:11:20.570 ,0,0,4.,4.8,0.,4.8,0.,4.8,0.,4.8
1979-07-19 06:11:25.370 ,0,0,2.,4.8,0.,4.8,0.,4.8,0.,4.8
1979-07-19 06:11:30.170 ,0,0,1.,4.8,0.,4.8,0.,4.8,0.,4.8
1979-07-19 06:11:34.970 ,0,0,0.,4.8,0.,4.8,0.,4.8,0.,4.8
1979-07-19 06:11:39.770 ,0,0,5.,4.8,0.,4.8,0.,4.8,0.,4.8
1979-07-19 06:11:44.570 ,0,0,2.,4.8,0.,4.8,0.,4.8,0.,4.8
1979-07-19 06:11:49.370 ,0,0,3.,4.8,0.,4.8,0.,4.8,0.,4.8
1979-07-19 06:11:54.170 ,0,0,0.,4.8,0.,4.8,0.,4.8,0.,4.8
1979-07-19 06:11:58.970 ,1,0,3.,4.8,0.,4.8,0.,4.8,0.,4.8
1979-07-19 06:12:03.770 ,1,0,0.,4.8,0.,4.8,0.,4.8,0.,4.8
1979-07-19 06:12:08.570 ,1,0,2.,4.8,0.,4.8,0.,4.8,0.,4.8
1979-07-19 06:12:13.370 ,1,0,2.,4.8,0.,4.8,0.,4.8,0.,4.8
1979-07-19 06:12:18.170 ,1,0,2.,4.8,0.,4.8,0.,4.8,0.,4.8
1979-07-19 06:12:22.970 ,1,0,2.,4.8,0.,4.8,0.,4.8,1.,4.8
1979-07-19 06:12:27.770 ,1,0,0.,4.8,0.,4.8,0.,4.8,0.,4.8
1979-07-19 06:12:32.570 ,1,0,2.,4.8,0.,4.8,0.,4.8,0.,4.8
1979-07-19 06:12:37.370 ,1,0,1.,4.8,0.,4.8,0.,4.8,0.,4.8
1979-07-19 06:12:42.170 ,1,0,4.,4.8,0.,4.8,0.,4.8,0.,4.8
1979-07-19 06:12:46.970 ,2,0,1.,4.8,0.,4.8,0.,4.8,0.,4.8
1979-07-19 06:12:51.770 ,2,0,1.,4.8,0.,4.8,0.,4.8,0.,4.8
1979-07-19 06:12:56.570 ,2,0,3.,4.8,0.,4.8,0.,4.8,0.,4.8
1979-07-19 06:13:01.370 ,2,0,1.,4.8,0.,4.8,0.,4.8,0.,4.8
1979-07-19 06:13:06.170 ,2,0,1.,4.8,0.,4.8,0.,4.8,0.,4.8
1979-07-19 06:13:10.970 ,2,0,2.,4.8,0.,4.8,0.,4.8,0.,4.8
1979-07-19 06:13:15.770 ,2,0,2.,4.8,0.,4.8,0.,4.8,0.,4.8
1979-07-19 06:13:20.570 ,2,0,3.,4.8,0.,4.8,0.,4.8,1.,4.8
1979-07-19 06:13:25.370 ,2,0,3.,4.8,0.,4.8,0.,4.8,0.,4.8
1979-07-19 06:13:30.170 ,2,0,4.,4.8,0.,4.8,0.,4.8,0.,4.8
1979-07-19 06:19:10.970 ,0,0,1.,4.8,0.,4.8,0.,4.8,0.,4.8
1979-07-19 06:19:15.770 ,0,0,2.,4.8,0.,4.8,0.,4.8,0.,4.8
1979-07-19 06:19:20.570 ,0,0,0.,4.8,0.,4.8,0.,4.8,0.,4.8
1979-07-19 06:19:25.370 ,0,0,0.,4.8,0.,4.8,0.,4.8,1.,4.8
1979-07-19 06:19:30.170 ,0,0,1.,4.8,0.,4.8,0.,4.8,0.,4.8
1979-07-19 06:19:34.970 ,0,0,2.,4.8,0.,4.8,0.,4.8,0.,4.8
1979-07-19 06:19:39.770 ,0,0,1.,4.8,0.,4.8,0.,4.8,0.,4.8
1979-07-19 06:19:44.570 ,0,0,4.,4.8,0.,4.8,0.,4.8,0.,4.8
1979-07-19 06:19:49.370 ,0,0,1.,4.8,0.,4.8,0.,4.8,0.,4.8
1979-07-19 06:19:54.170 ,0,0,0.,4.8,0.,4.8,0.,4.8,0.,4.8
1979-07-19 06:19:58.970 ,4,0,1.,4.8,0.,4.8,0.,4.8,0.,4.8
1979-07-19 06:20:03.770 ,4,0,2.,4.8,0.,4.8,0.,4.8,0.,4.8
1979-07-19 06:20:08.570 ,4,0,1.,4.8,0.,4.8,0.,4.8,0.,4.8
1979-07-19 06:20:13.370 ,4,0,1.,4.8,0.,4.8,0.,4.8,0.,4.8
1979-07-19 06:20:18.170 ,4,0,4.,4.8,0.,4.8,0.,4.8,0.,4.8
1979-07-19 06:20:22.970 ,4,0,0.,4.8,0.,4.8,0.,4.8,0.,4.8
1979-07-19 06:20:27.770 ,4,0,0.,4.8,0.,4.8,0.,4.8,0.,4.8
1979-07-19 06:20:32.570 ,4,0,0.,4.8,0.,4.8,0.,4.8,0.,4.8
1979-07-19 06:20:37.370 ,4,0,5.,4.8,0.,4.8,0.,4.8,0.,4.8
1979-07-19 06:20:42.170 ,4,0,3.,4.8,0.,4.8,0.,4.8,0.,4.8
1979-07-19 06:20:46.970 ,3,0,1.,4.8,0.,4.8,0.,4.8,0.,4.8
1979-07-19 06:20:51.770 ,3,0,3.,4.8,0.,4.8,0.,4.8,0.,4.8
1979-07-19 06:20:56.570 ,3,0,5.,4.8,0.,4.8,0.,4.8,0.,4.8
1979-07-19 06:21:01.370 ,3,0,1.,4.8,0.,4.8,0.,4.8,0.,4.8
1979-07-19 06:21:06.170 ,3,0,1.,4.8,0.,4.8,0.,4.8,0.,4.8
1979-07-19 06:21:10.970 ,3,0,1.,4.8,0.,4.8,0.,4.8,0.,4.8
1979-07-19 06:21:15.770 ,3,0,2.,4.8,0.,4.8,0.,4.8,0.,4.8
1979-07-19 06:21:20.570 ,3,0,0.,4.8,0.,4.8,0.,4.8,0.,4.8
1979-07-19 06:21:25.370 ,3,0,1.,4.8,0.,4.8,0.,4.8,0.,4.8
1979-07-19 06:21:30.170 ,3,0,3.,4.8,0.,4.8,0.,4.8,0.,4.8
1979-07-19 06:21:34.970 ,2,0,3.,4.8,0.,4.8,0.,4.8,0.,4.8
1979-07-19 06:21:39.770 ,2,0,0.,4.8,0.,4.8,0.,4.8,1.,4.8
1979-07-19 06:21:44.570 ,2,0,2.,4.8,0.,4.8,0.,4.8,0.,4.8
1979-07-19 06:21:49.370 ,2,0,1.,4.8,0.,4.8,0.,4.8,0.,4.8
1979-07-19 06:21:54.170 ,2,0,1.,4.8,0.,4.8,0.,4.8,0.,4.8
1979-07-19 06:21:58.970 ,2,0,3.,4.8,0.,4.8,0.,4.8,0.,4.8
1979-07-19 06:22:03.770 ,2,0,0.,4.8,0.,4.8,0.,4.8,0.,4.8
1979-07-19 06:22:08.570 ,2,0,0.,4.8,0.,4.8,0.,4.8,0.,4.8
1979-07-19 06:22:13.370 ,2,0,2.,4.8,0.,4.8,0.,4.8,0.,4.8
1979-07-19 06:22:18.170 ,2,0,0.,4.8,0.,4.8,0.,4.8,0.,4.8
1979-07-19 06:22:22.970 ,1,0,1.,4.8,0.,4.8,0.,4.8,0.,4.8
1979-07-19 06:22:27.770 ,1,0,0.,4.8,0.,4.8,0.,4.8,0.,4.8
1979-07-19 06:22:32.570 ,1,0,2.,4.8,0.,4.8,0.,4.8,1.,4.8
1979-07-19 06:22:37.370 ,1,0,4.,4.8,0.,4.8,0.,4.8,0.,4.8
1979-07-19 06:22:42.170 ,1,0,0.,4.8,0.,4.8,0.,4.8,1.,4.8
1979-07-19 06:22:46.970 ,1,0,3.,4.8,0.,4.8,0.,4.8,0.,4.8
1979-07-19 06:22:51.770 ,1,0,1.,4.8,0.,4.8,0.,4.8,0.,4.8
1979-07-19 06:22:56.570 ,1,0,0.,4.8,0.,4.8,0.,4.8,0.,4.8
1979-07-19 06:23:01.370 ,1,0,3.,4.8,0.,4.8,0.,4.8,0.,4.8
1979-07-19 06:23:06.170 ,1,0,1.,4.8,0.,4.8,0.,4.8,0.,4.8
1979-07-19 06:23:10.970 ,0,0,2.,4.8,0.,4.8,0.,4.8,0.,4.8
1979-07-19 06:23:15.770 ,0,0,0.,4.8,0.,4.8,0.,4.8,0.,4.8
1979-07-19 06:23:20.570 ,0,0,3.,4.8,0.,4.8,0.,4.8,0.,4.8
1979-07-19 06:23:25.370 ,0,0,2.,4.8,0.,4.8,0.,4.8,0.,4.8
1979-07-19 06:23:30.170 ,0,0,1.,4.8,0.,4.8,0.,4.8,0.,4.8
1979-07-19 06:23:34.970 ,0,0,3.,4.8,0.,4.8,0.,4.8,0.,4.8
1979-07-19 06:23:39.770 ,0,0,5.,4.8,0.,4.8,0.,4.8,0.,4.8
1979-07-19 06:23:44.570 ,0,0,0.,4.8,0.,4.8,0.,4.8,0.,4.8
1979-07-19 06:23:49.370 ,0,0,0.,4.8,0.,4.8,0.,4.8,0.,4.8
1979-07-19 06:23:54.170 ,0,0,0.,4.8,0.,4.8,0.,4.8,0.,4.8
1979-07-19 06:23:58.970 ,0,0,1.,4.8,0.,4.8,0.,4.8,0.,4.8
1979-07-19 06:24:03.770 ,0,0,2.,4.8,0.,4.8,0.,4.8,0.,4.8
1979-07-19 06:24:08.570 ,0,0,2.,4.8,0.,4.8,0.,4.8,0.,4.8
1979-07-19 06:24:13.370 ,0,0,0.,4.8,0.,4.8,0.,4.8,0.,4.8
1979-07-19 06:24:18.170 ,0,0,3.,4.8,0.,4.8,0.,4.8,1.,4.8
1979-07-19 06:24:22.970 ,0,0,0.,4.8,0.,4.8,0.,4.8,0.,4.8
1979-07-19 06:24:27.770 ,0,0,3.,4.8,0.,4.8,0.,4.8,0.,4.8
1979-07-19 06:24:32.570 ,0,0,2.,4.8,0.,4.8,0.,4.8,0.,4.8
1979-07-19 06:24:37.370 ,0,0,1.,4.8,0.,4.8,0.,4.8,0.,4.8
1979-07-19 06:24:42.170 ,0,0,1.,4.8,0.,4.8,0.,4.8,0.,4.8
1979-07-19 06:24:46.970 ,1,0,3.,4.8,0.,4.8,0.,4.8,0.,4.8
1979-07-19 06:24:51.770 ,1,0,2.,4.8,0.,4.8,0.,4.8,0.,4.8
1979-07-19 06:24:56.570 ,1,0,3.,4.8,0.,4.8,0.,4.8,0.,4.8
1979-07-19 06:25:01.370 ,1,0,1.,4.8,0.,4.8,0.,4.8,0.,4.8
1979-07-19 06:25:06.170 ,1,0,0.,4.8,0.,4.8,0.,4.8,0.,4.8
1979-07-19 06:25:10.970 ,1,0,2.,4.8,0.,4.8,0.,4.8,0.,4.8
1979-07-19 06:25:15.770 ,1,0,1.,4.8,0.,4.8,0.,4.8,0.,4.8
1979-07-19 06:25:20.570 ,1,0,0.,4.8,0.,4.8,0.,4.8,0.,4.8
1979-07-19 06:25:25.370 ,1,0,1.,4.8,0.,4.8,0.,4.8,0.,4.8
1979-07-19 06:25:30.170 ,1,0,4.,4.8,0.,4.8,0.,4.8,0.,4.8
1979-07-19 06:25:34.970 ,2,0,2.,4.8,0.,4.8,0.,4.8,0.,4.8
1979-07-19 06:25:39.770 ,2,0,1.,4.8,0.,4.8,0.,4.8,0.,4.8
1979-07-19 06:25:44.570 ,2,0,1.,4.8,0.,4.8,0.,4.8,0.,4.8
1979-07-19 06:25:49.370 ,2,0,0.,4.8,0.,4.8,0.,4.8,0.,4.8
1979-07-19 06:25:54.170 ,2,0,1.,4.8,0.,4.8,0.,4.8,0.,4.8
1979-07-19 06:25:58.970 ,2,0,2.,4.8,0.,4.8,0.,4.8,0.,4.8
1979-07-19 06:26:03.770 ,2,0,3.,4.8,0.,4.8,0.,4.8,0.,4.8
1979-07-19 06:26:08.570 ,2,0,0.,4.8,0.,4.8,0.,4.8,0.,4.8
1979-07-19 06:26:13.370 ,2,0,1.,4.8,0.,4.8,0.,4.8,0.,4.8
1979-07-19 06:26:18.170 ,2,0,0.,4.8,0.,4.8,0.,4.8,0.,4.8
1979-07-19 06:26:22.970 ,3,0,3.,4.8,0.,4.8,0.,4.8,0.,4.8
1979-07-19 06:26:27.770 ,3,0,0.,4.8,0.,4.8,0.,4.8,0.,4.8
1979-07-19 06:26:32.570 ,3,0,0.,4.8,0.,4.8,0.,4.8,0.,4.8
1979-07-19 06:26:37.370 ,3,0,0.,4.8,0.,4.8,0.,4.8,0.,4.8
1979-07-19 06:26:42.170 ,3,0,3.,4.8,0.,4.8,0.,4.8,0.,4.8
1979-07-19 06:26:46.970 ,3,0,1.,4.8,0.,4.8,0.,4.8,0.,4.8
1979-07-19 06:26:51.770 ,3,0,2.,4.8,0.,4.8,0.,4.8,0.,4.8
1979-07-19 06:26:56.570 ,3,0,1.,4.8,0.,4.8,0.,4.8,0.,4.8
1979-07-19 06:27:01.370 ,3,0,1.,4.8,0.,4.8,0.,4.8,0.,4.8
1979-07-19 06:27:06.170 ,3,0,2.,4.8,0.,4.8,0.,4.8,1.,4.8
1979-07-19 06:27:10.970 ,4,0,3.,4.8,0.,4.8,0.,4.8,0.,4.8
1979-07-19 06:27:15.770 ,4,0,0.,4.8,0.,4.8,0.,4.8,0.,4.8
1979-07-19 06:27:20.570 ,4,0,1.,4.8,0.,4.8,0.,4.8,0.,4.8
1979-07-19 06:27:25.370 ,4,0,2.,4.8,0.,4.8,0.,4.8,0.,4.8
1979-07-19 06:27:30.170 ,4,0,1.,4.8,0.,4.8,0.,4.8,0.,4.8
1979-07-19 06:27:34.970 ,4,0,0.,4.8,0.,4.8,0.,4.8,0.,4.8
1979-07-19 06:27:39.770 ,4,0,1.,4.8,0.,4.8,0.,4.8,0.,4.8
1979-07-19 06:27:44.570 ,4,0,0.,4.8,0.,4.8,0.,4.8,0.,4.8
1979-07-19 06:27:49.370 ,4,0,3.,4.8,0.,4.8,0.,4.8,0.,4.8
1979-07-19 06:27:54.170 ,4,0,1.,4.8,0.,4.8,0.,4.8,1.,4.8
1979-07-19 06:27:58.970 ,5,0,3.,4.8,0.,4.8,0.,4.8,0.,4.8
1979-07-19 06:28:03.770 ,5,0,1.,4.8,0.,4.8,0.,4.8,0.,4.8
1979-07-19 06:28:08.570 ,5,0,2.,4.8,0.,4.8,0.,4.8,0.,4.8
1979-07-19 06:28:13.370 ,5,0,1.,4.8,0.,4.8,0.,4.8,0.,4.8
1979-07-19 06:28:18.170 ,5,0,1.,4.8,0.,4.8,0.,4.8,0.,4.8
1979-07-19 06:28:22.970 ,5,0,0.,4.8,0.,4.8,0.,4.8,0.,4.8
1979-07-19 06:28:27.770 ,5,0,2.,4.8,0.,4.8,0.,4.8,0.,4.8
1979-07-19 06:28:32.570 ,5,0,2.,4.8,0.,4.8,0.,4.8,0.,4.8
1979-07-19 06:28:37.370 ,5,0,3.,4.8,0.,4.8,0.,4.8,0.,4.8
1979-07-19 06:28:42.170 ,5,0,2.,4.8,0.,4.8,0.,4.8,0.,4.8
1979-07-19 06:28:46.970 ,6,0,0.,4.8,0.,4.8,0.,4.8,0.,4.8
1979-07-19 06:28:51.770 ,6,0,1.,4.8,0.,4.8,0.,4.8,0.,4.8
1979-07-19 06:28:56.570 ,6,0,2.,4.8,0.,4.8,0.,4.8,0.,4.8
1979-07-19 06:29:01.370 ,6,0,2.,4.8,0.,4.8,0.,4.8,0.,4.8
1979-07-19 06:29:06.170 ,6,0,0.,4.8,0.,4.8,0.,4.8,0.,4.8
1979-07-19 06:29:10.970 ,6,0,1.,4.8,0.,4.8,0.,4.8,0.,4.8
1979-07-19 06:29:15.770 ,6,0,2.,4.8,0.,4.8,0.,4.8,0.,4.8
1979-07-19 06:29:20.570 ,6,0,1.,4.8,0.,4.8,0.,4.8,0.,4.8
1979-07-19 06:29:25.370 ,6,0,0.,4.8,0.,4.8,0.,4.8,0.,4.8
1979-07-19 06:29:30.170 ,6,0,0.,4.8,0.,4.8,0.,4.8,0.,4.8
1979-07-19 06:29:34.970 ,7,0,0.,4.8,0.,4.8,0.,4.8,0.,4.8
1979-07-19 06:29:39.770 ,7,0,4.,4.8,0.,4.8,0.,4.8,0.,4.8
1979-07-19 06:29:44.570 ,7,0,1.,4.8,0.,4.8,0.,4.8,0.,4.8
1979-07-19 06:29:49.370 ,7,0,0.,4.8,0.,4.8,0.,4.8,0.,4.8
1979-07-19 06:29:54.170 ,7,0,0.,4.8,0.,4.8,0.,4.8,0.,4.8
1979-07-19 06:29:58.970 ,7,0,2.,4.8,0.,4.8,0.,4.8,0.,4.8
1979-07-19 06:30:03.770 ,7,0,1.,4.8,0.,4.8,0.,4.8,0.,4.8
1979-07-19 06:30:08.570 ,7,0,0.,4.8,0.,4.8,0.,4.8,0.,4.8
1979-07-19 06:30:13.370 ,7,0,1.,4.8,0.,4.8,0.,4.8,0.,4.8
1979-07-19 06:30:18.170 ,7,0,1.,4.8,0.,4.8,0.,4.8,0.,4.8
1979-07-19 06:30:22.970 ,7,0,1.,4.8,0.,4.8,0.,4.8,0.,4.8
1979-07-19 06:30:27.770 ,7,0,3.,4.8,0.,4.8,0.,4.8,0.,4.8
1979-07-19 06:30:32.570 ,7,0,2.,4.8,0.,4.8,0.,4.8,0.,4.8
1979-07-19 06:30:37.370 ,7,0,1.,4.8,0.,4.8,0.,4.8,0.,4.8
1979-07-19 06:30:42.170 ,7,0,0.,4.8,0.,4.8,0.,4.8,0.,4.8
1979-07-19 06:30:46.970 ,7,0,1.,4.8,0.,4.8,0.,4.8,0.,4.8
1979-07-19 06:30:51.770 ,7,0,0.,4.8,0.,4.8,0.,4.8,0.,4.8
1979-07-19 06:30:56.570 ,7,0,1.,4.8,0.,4.8,0.,4.8,0.,4.8
1979-07-19 06:31:01.370 ,7,0,0.,4.8,0.,4.8,0.,4.8,0.,4.8
1979-07-19 06:31:06.170 ,7,0,2.,4.8,0.,4.8,0.,4.8,0.,4.8
1979-07-19 06:31:10.970 ,6,0,1.,4.8,0.,4.8,0.,4.8,0.,4.8
1979-07-19 06:31:15.770 ,6,0,0.,4.8,0.,4.8,0.,4.8,0.,4.8
1979-07-19 06:31:20.570 ,6,0,1.,4.8,0.,4.8,0.,4.8,0.,4.8
1979-07-19 06:31:25.370 ,6,0,1.,4.8,0.,4.8,0.,4.8,0.,4.8
1979-07-19 06:31:30.170 ,6,0,0.,4.8,0.,4.8,0.,4.8,0.,4.8
1979-07-19 06:31:34.970 ,6,0,2.,4.8,0.,4.8,0.,4.8,0.,4.8
1979-07-19 06:31:39.770 ,6,0,2.,4.8,0.,4.8,0.,4.8,0.,4.8
1979-07-19 06:31:44.570 ,6,0,0.,4.8,0.,4.8,0.,4.8,0.,4.8
1979-07-19 06:31:49.370 ,6,0,2.,4.8,0.,4.8,0.,4.8,0.,4.8
1979-07-19 06:31:54.170 ,6,0,1.,4.8,0.,4.8,0.,4.8,0.,4.8
1979-07-19 06:31:58.970 ,5,0,0.,4.8,0.,4.8,0.,4.8,0.,4.8
1979-07-19 06:32:03.770 ,5,0,1.,4.8,0.,4.8,0.,4.8,0.,4.8
1979-07-19 06:32:08.570 ,5,0,2.,4.8,0.,4.8,0.,4.8,0.,4.8
1979-07-19 06:32:13.370 ,5,0,2.,4.8,0.,4.8,0.,4.8,0.,4.8
1979-07-19 06:32:18.170 ,5,0,0.,4.8,0.,4.8,0.,4.8,0.,4.8
1979-07-19 06:32:22.970 ,0,0,0.,4.8,0.,4.8,0.,4.8,0.,4.8
1979-07-19 06:32:27.770 ,0,0,,0,,0,,0,,0
1979-07-19 06:32:32.570 ,0,0,,0,,0,,0,,0
1979-07-19 06:32:37.370 ,0,0,,0,,0,,0,,0
1979-07-19 06:32:42.170 ,0,0,,0,,0,,0,,0
1979-07-19 06:32:35.570 ,0,0,,0,,0,,0,,0
1979-07-19 06:32:40.370 ,0,0,,0,,0,,0,,0
1979-07-19 06:32:45.170 ,0,0,,0,,0,,0,,0
1979-07-19 06:32:49.970 ,0,0,2.,4.8,0.,4.8,0.,4.8,0.,4.8
1979-07-19 06:32:54.770 ,0,0,0.,4.8,0.,4.8,0.,4.8,0.,4.8
1979-07-19 06:33:34.970 ,0,0,1.,4.8,0.,4.8,0.,4.8,0.,4.8
1979-07-19 06:33:39.770 ,0,0,3.,4.8,0.,4.8,0.,4.8,1.,4.8
1979-07-19 06:33:44.570 ,0,0,1.,4.8,0.,4.8,0.,4.8,0.,4.8
1979-07-19 06:33:49.370 ,0,0,1.,4.8,0.,4.8,0.,4.8,0.,4.8
1979-07-19 06:33:54.170 ,0,0,1.,4.8,0.,4.8,0.,4.8,0.,4.8
1979-07-19 06:33:58.970 ,0,0,2.,4.8,0.,4.8,0.,4.8,0.,4.8
1979-07-19 06:34:03.770 ,0,0,3.,4.8,0.,4.8,0.,4.8,0.,4.8
1979-07-19 06:34:08.570 ,0,0,0.,4.8,0.,4.8,0.,4.8,0.,4.8
1979-07-19 06:34:13.370 ,0,0,1.,4.8,0.,4.8,0.,4.8,0.,4.8
1979-07-19 06:34:18.170 ,0,0,0.,4.8,0.,4.8,0.,4.8,0.,4.8
1979-07-19 06:34:22.970 ,2,0,1.,4.8,0.,4.8,0.,4.8,0.,4.8
1979-07-19 06:34:27.770 ,2,0,2.,4.8,0.,4.8,0.,4.8,0.,4.8
1979-07-19 06:34:32.570 ,2,0,0.,4.8,0.,4.8,0.,4.8,0.,4.8
1979-07-19 06:34:37.370 ,2,0,1.,4.8,0.,4.8,0.,4.8,1.,4.8
1979-07-19 06:34:42.170 ,2,0,1.,4.8,0.,4.8,0.,4.8,0.,4.8
1979-07-19 06:34:46.970 ,2,0,2.,4.8,0.,4.8,0.,4.8,0.,4.8
1979-07-19 06:34:51.770 ,2,0,1.,4.8,0.,4.8,0.,4.8,0.,4.8
1979-07-19 06:34:56.570 ,2,0,2.,4.8,0.,4.8,0.,4.8,0.,4.8
1979-07-19 06:35:01.370 ,2,0,2.,4.8,0.,4.8,0.,4.8,0.,4.8
1979-07-19 06:35:06.170 ,2,0,1.,4.8,0.,4.8,0.,4.8,0.,4.8
1979-07-19 06:35:10.970 ,1,0,1.,4.8,0.,4.8,0.,4.8,0.,4.8
1979-07-19 06:35:15.770 ,1,0,2.,4.8,0.,4.8,0.,4.8,0.,4.8
1979-07-19 06:35:20.570 ,1,0,2.,4.8,0.,4.8,0.,4.8,0.,4.8
1979-07-19 06:35:25.370 ,1,0,0.,4.8,0.,4.8,0.,4.8,0.,4.8
1979-07-19 06:35:30.170 ,1,0,1.,4.8,0.,4.8,0.,4.8,0.,4.8
1979-07-19 06:35:34.970 ,1,0,1.,4.8,0.,4.8,0.,4.8,0.,4.8
1979-07-19 06:35:39.770 ,1,0,2.,4.8,0.,4.8,0.,4.8,0.,4.8
1979-07-19 06:35:44.570 ,1,0,3.,4.8,0.,4.8,0.,4.8,0.,4.8
1979-07-19 06:35:49.370 ,1,0,2.,4.8,0.,4.8,0.,4.8,0.,4.8
1979-07-19 06:35:54.170 ,1,0,0.,4.8,0.,4.8,0.,4.8,0.,4.8
1979-07-19 06:35:58.970 ,0,0,2.,4.8,0.,4.8,0.,4.8,0.,4.8
1979-07-19 06:36:03.770 ,0,0,2.,4.8,0.,4.8,0.,4.8,0.,4.8
1979-07-19 06:36:08.570 ,0,0,2.,4.8,0.,4.8,0.,4.8,0.,4.8
1979-07-19 06:36:13.370 ,0,0,0.,4.8,0.,4.8,0.,4.8,1.,4.8
1979-07-19 06:36:18.170 ,0,0,2.,4.8,0.,4.8,0.,4.8,0.,4.8
1979-07-19 06:36:22.970 ,0,0,2.,4.8,0.,4.8,0.,4.8,0.,4.8
1979-07-19 06:36:27.770 ,0,0,1.,4.8,0.,4.8,0.,4.8,0.,4.8
1979-07-19 06:36:32.570 ,0,0,1.,4.8,0.,4.8,0.,4.8,0.,4.8
1979-07-19 06:36:37.370 ,0,0,0.,4.8,0.,4.8,0.,4.8,1.,4.8
1979-07-19 06:36:42.170 ,0,0,2.,4.8,0.,4.8,0.,4.8,0.,4.8
1979-07-19 06:36:46.970 ,0,0,2.,4.8,0.,4.8,0.,4.8,0.,4.8
1979-07-19 06:36:51.770 ,0,0,1.,4.8,0.,4.8,0.,4.8,0.,4.8
1979-07-19 06:36:56.570 ,0,0,3.,4.8,0.,4.8,0.,4.8,0.,4.8
1979-07-19 06:37:01.370 ,0,0,0.,4.8,0.,4.8,0.,4.8,0.,4.8
1979-07-19 06:37:06.170 ,0,0,1.,4.8,0.,4.8,0.,4.8,0.,4.8
1979-07-19 06:37:10.970 ,0,0,1.,4.8,0.,4.8,0.,4.8,0.,4.8
1979-07-19 06:37:15.770 ,0,0,2.,4.8,0.,4.8,0.,4.8,0.,4.8
1979-07-19 06:37:20.570 ,0,0,1.,4.8,0.,4.8,0.,4.8,0.,4.8
1979-07-19 06:37:25.370 ,0,0,1.,4.8,0.,4.8,0.,4.8,0.,4.8
1979-07-19 06:37:30.170 ,0,0,1.,4.8,0.,4.8,0.,4.8,0.,4.8
1979-07-19 06:37:34.970 ,1,0,1.,4.8,0.,4.8,0.,4.8,0.,4.8
1979-07-19 06:37:39.770 ,1,0,2.,4.8,0.,4.8,0.,4.8,0.,4.8
1979-07-19 06:37:44.570 ,1,0,1.,4.8,0.,4.8,0.,4.8,0.,4.8
1979-07-19 06:37:49.370 ,1,0,1.,4.8,0.,4.8,0.,4.8,0.,4.8
1979-07-19 06:37:54.170 ,1,0,0.,4.8,0.,4.8,0.,4.8,0.,4.8
1979-07-19 06:37:58.970 ,1,0,0.,4.8,0.,4.8,0.,4.8,0.,4.8
1979-07-19 06:38:03.770 ,1,0,0.,4.8,0.,4.8,0.,4.8,0.,4.8
1979-07-19 06:38:08.570 ,1,0,0.,4.8,0.,4.8,0.,4.8,0.,4.8
1979-07-19 06:38:13.370 ,1,0,3.,4.8,0.,4.8,0.,4.8,0.,4.8
1979-07-19 06:38:18.170 ,1,0,1.,4.8,0.,4.8,0.,4.8,0.,4.8
1979-07-19 06:38:22.970 ,2,0,0.,4.8,0.,4.8,0.,4.8,0.,4.8
1979-07-19 06:38:27.770 ,2,0,0.,4.8,0.,4.8,0.,4.8,0.,4.8
1979-07-19 06:38:32.570 ,2,0,1.,4.8,0.,4.8,0.,4.8,0.,4.8
1979-07-19 06:38:37.370 ,2,0,1.,4.8,0.,4.8,0.,4.8,0.,4.8
1979-07-19 06:38:42.170 ,2,0,0.,4.8,0.,4.8,0.,4.8,0.,4.8
1979-07-19 06:38:46.970 ,2,0,1.,4.8,0.,4.8,0.,4.8,0.,4.8
1979-07-19 06:38:51.770 ,2,0,2.,4.8,0.,4.8,0.,4.8,0.,4.8
1979-07-19 06:38:56.570 ,2,0,1.,4.8,0.,4.8,0.,4.8,0.,4.8
1979-07-19 06:39:01.370 ,2,0,0.,4.8,0.,4.8,0.,4.8,0.,4.8
1979-07-19 06:39:06.170 ,2,0,1.,4.8,0.,4.8,0.,4.8,0.,4.8
1979-07-19 06:39:10.970 ,3,0,0.,4.8,0.,4.8,0.,4.8,0.,4.8
1979-07-19 06:39:15.770 ,3,0,2.,4.8,0.,4.8,0.,4.8,0.,4.8
1979-07-19 06:39:20.570 ,3,0,0.,4.8,0.,4.8,0.,4.8,0.,4.8
1979-07-19 06:39:25.370 ,3,0,0.,4.8,0.,4.8,0.,4.8,0.,4.8
1979-07-19 06:39:30.170 ,3,0,2.,4.8,0.,4.8,0.,4.8,0.,4.8
1979-07-19 06:39:34.970 ,3,0,0.,4.8,0.,4.8,0.,4.8,0.,4.8
1979-07-19 06:39:39.770 ,3,0,0.,4.8,0.,4.8,0.,4.8,0.,4.8
1979-07-19 06:39:44.570 ,3,0,3.,4.8,0.,4.8,0.,4.8,0.,4.8
1979-07-19 06:39:49.370 ,3,0,0.,4.8,0.,4.8,0.,4.8,0.,4.8
1979-07-19 06:39:54.170 ,3,0,0.,4.8,0.,4.8,0.,4.8,0.,4.8
1979-07-19 06:39:58.970 ,4,0,1.,4.8,0.,4.8,0.,4.8,0.,4.8
1979-07-19 06:40:03.770 ,4,0,0.,4.8,0.,4.8,0.,4.8,0.,4.8
1979-07-19 06:40:08.570 ,4,0,1.,4.8,0.,4.8,0.,4.8,0.,4.8
1979-07-19 06:40:13.370 ,4,0,0.,4.8,0.,4.8,0.,4.8,0.,4.8